Weather History for Iron Mountain, MI

Change the Weather History Date:

Wednesday, January 1, 2014

  Actual Average Record
Temperature  
Mean Temperature -4 °F -  
Max Temperature 7 °F 24 °F 38 °F (1980)
Min Temperature -14 °F 5 °F -22 °F (1968)
Degree Days  
Heating Degree Days 68    
Moisture  
Dew Point -11 °F    
Average Humidity 67    
Maximum Humidity 78    
Minimum Humidity 53    
Precipitation  
Precipitation 0.00 in - - ()
Sea Level Pressure  
Sea Level Pressure 30.46 in    
Wind  
Wind Speed 3 mph (NNW)    
Max Wind Speed 10 mph    
Max Gust Speed -    
Visibility 10 miles    
Events      
Averages and records for this station are not official NWS values.
T = Trace of Precipitation, MM = Missing Value Source: NWS Daily Summary

Daily Weather History Graph

Daily Weather History Graph

Search for Another Location

Airport:

Trip Planner

Search our weather history database for the weather conditions in past years. The results will help you decide how hot, cold, wet, or windy it might be!

Date:

Astronomy

Jan. 01, 2014 Rise Set
Actual Time 7:33 AM CST 4:18 PM CST
Civil Twilight 6:59 AM CST 4:52 PM CST
Nautical Twilight 6:21 AM CST 5:30 PM CST
Astronomical Twilight 5:45 AM CST 6:06 PM CST
Moon 7:20 AM CST (1/1) 5:07 PM CST (1/1)
Length of Visible Light 9h 53m
Length of Day
8h 44m
New Moon, 0% of the Moon is Illuminated
Jan 1
New Moon
Jan 7
First Quarter
Jan 15
Full
Jan 23
Last Quarter
Jan 30
New

Hourly Weather History & Observations

Time (CST) Temp. Windchill Dew Point Humidity Pressure Visibility Wind Dir Wind Speed Gust Speed Precip Events Conditions
12:54 AM -14.1 °F - -20.0 °F 75% 30.42 in 10.0 mi Calm Calm - N/A   Clear
1:54 AM -11.9 °F - -18.0 °F 74% 30.42 in 10.0 mi Calm Calm - N/A   Clear
2:54 AM -9.9 °F - -17.0 °F 71% 30.44 in 10.0 mi Calm Calm - N/A   Partly Cloudy
3:54 AM -9.9 °F - -16.1 °F 74% 30.43 in 10.0 mi Calm Calm - N/A   Scattered Clouds
4:54 AM -9.0 °F -18.2 °F -15.0 °F 75% 30.43 in 10.0 mi NW 3.5 mph - N/A   Mostly Cloudy
5:54 AM -9.9 °F - -16.1 °F 74% 30.45 in 10.0 mi Calm Calm - N/A   Scattered Clouds
6:54 AM -9.0 °F -20.4 °F -15.0 °F 75% 30.47 in 10.0 mi NNW 4.6 mph - N/A   Overcast
7:54 AM -11.0 °F -20.4 °F -16.1 °F 78% 30.49 in 10.0 mi NNW 3.5 mph - N/A   Mostly Cloudy
8:54 AM -8.0 °F -16.9 °F -14.1 °F 75% 30.51 in 10.0 mi NNW 3.5 mph - N/A   Overcast
9:54 AM -4.0 °F - -11.0 °F 72% 30.51 in 10.0 mi Calm Calm - N/A   Overcast
10:54 AM 1.0 °F -10.3 °F -9.9 °F 60% 30.51 in 10.0 mi North 5.8 mph - N/A   Mostly Cloudy
11:54 AM 3.0 °F -8.0 °F -9.0 °F 57% 30.49 in 10.0 mi NW 5.8 mph - N/A   Partly Cloudy
12:54 PM 5.0 °F -5.6 °F -7.1 °F 58% 30.47 in 10.0 mi North 5.8 mph - N/A   Mostly Cloudy
1:54 PM 7.0 °F 0.1 °F -7.1 °F 53% 30.45 in 10.0 mi NNW 3.5 mph - N/A   Scattered Clouds
2:54 PM 6.1 °F -5.6 °F -7.1 °F 55% 30.44 in 10.0 mi NNW 6.9 mph - N/A   Overcast
3:54 PM 5.0 °F -6.9 °F -7.1 °F 58% 30.45 in 10.0 mi NW 6.9 mph - N/A   Overcast
4:54 PM 3.9 °F -6.9 °F -7.1 °F 60% 30.46 in 10.0 mi NNW 5.8 mph - N/A   Overcast
5:54 PM 3.9 °F -8.2 °F -7.1 °F 60% 30.47 in 10.0 mi North 6.9 mph - N/A   Overcast
6:54 PM 3.0 °F -10.5 °F -7.1 °F 63% 30.47 in 10.0 mi North 8.1 mph - N/A   Overcast
7:54 PM 3.0 °F -12.5 °F -7.1 °F 63% 30.46 in 10.0 mi North 10.4 mph - N/A   Overcast
8:54 PM 1.9 °F -11.8 °F -7.1 °F 66% 30.46 in 10.0 mi North 8.1 mph - N/A   Overcast
9:54 PM 1.0 °F -12.9 °F -8.0 °F 66% 30.45 in 10.0 mi North 8.1 mph - N/A   Overcast
10:54 PM -0.0 °F -13.0 °F -9.0 °F 66% 30.45 in 10.0 mi North 6.9 mph - N/A   Overcast
11:54 PM -5.1 °F -13.6 °F -11.0 °F 76% 30.45 in 10.0 mi NW 3.5 mph - N/A   Clear